Tracking 29892 objects as of 21-Nov-2024
HD Live streaming from Space Station
objects crossing your sky now

INTELSAT 508

Track INTELSAT 508 now!
INTELSAT 508 is classified as:


NORAD ID: 14786
Int'l Code: 1984-023A
Perigee: 36,561.7 km
Apogee: 36,738.8 km
Inclination: 14.2 °
Period: 1,480.1 minutes
Semi major axis: 43021 km
RCS: 7.6859 m2 (large)
Launch date: March 5, 1984
Source: International Telecommunications Satellite Organization (ITSO)
Launch site: FRENCH GUIANA (FRGUI)
Your satellite tracking list
Your tracking list is empty




NASA's NSSDC Master Catalog

Two Line Element Set (TLE):
1 14786U 84023A   24325.69375601 -.00000116  00000-0  00000+0 0  9994
2 14786  14.1686 341.6541 0020583 241.9843 293.7657  0.97292138109669
Source of the keplerian elements: AFSPC